Location: LDNL
(36.4545°S, 141.6685°E)
Time: 22:37:32
(UTC+10:00)

CAS-4B - Visible Passes

Search period start: 18 May 2022 00:00
Search period end: 28 May 2022 00:00
Orbit: 526 x 536 km, 43.0° (Epoch: 18 May)

Date Brightness Start Highest point End Pass type
(mag) Time Alt. Az. Time Alt. Az. Time Alt. Az.
21 May ? 06:25:00 10° NNE 06:26:53 13° NE 06:28:47 10° ENE visible
22 May ? 06:12:01 10° N 06:14:38 17° NE 06:17:17 10° E visible
23 May ? 05:59:19 10° N 06:02:24 21° NE 06:05:31 10° E visible
24 May ? 05:46:45 10° NNW 05:50:10 26° NE 05:53:38 10° E visible
25 May ? 05:36:02 21° N 05:37:57 32° NE 05:41:39 10° E visible
26 May ? 05:25:19 39° NNE 05:25:43 40° NE 05:29:37 10° ESE visible
26 May ? 07:01:43 10° W 07:05:43 51° SSW 07:09:46 10° ESE visible
27 May ? 05:14:23 42° ENE 05:14:23 42° ENE 05:17:31 10° ESE visible
27 May ? 06:49:39 10° W 06:53:37 45° SSW 06:57:35 10° ESE visible
